,,,PA_Meas_PMT16A,,PR_Meas_QMR101_102,,RH_Meas_QMH101,,SR_Meas_QMS101,,TA_Meas_QMH101,,GenWind,,GenWind,
date,time,status,PA,status,PR,status,RH,status,SR,status,TA,status,DirAvg,status,SpdAvg,
2008-04-08, 00:00:04,VALID,1003.33,VALID,0,VALID,92.0882,VALID,0,VALID,24.3867,VALID,15,VALID,0.0382813,
2008-04-08, 00:01:04,VALID,1003.38,VALID,0,VALID,92.3323,VALID,0,VALID,24.3478,VALID,15,VALID,0,
2008-04-08, 00:02:04,VALID,1003.38,VALID,0,VALID,92.3705,VALID,0,VALID,24.3886,VALID,14,VALID,0.132813,
2008-04-08, 00:03:04,VALID,1003.4,VALID,0,VALID,92.4773,VALID,0,VALID,24.3673,VALID,14,VALID,0.0855469,
2008-04-08, 00:04:04,VALID,1003.4,VALID,0,VALID,92.3781,VALID,0,VALID,24.3886,VALID,359,VALID,0.392969,
2008-04-08, 00:05:04,VALID,1003.43,VALID,0,VALID,92.34,VALID,0,VALID,24.3673,VALID,359,VALID,0.0300781,
2008-04-08, 00:06:04,VALID,1003.44,VALID,0,VALID,92.3934,VALID,0,VALID,24.3673,VALID,354,VALID,0.504687,
2008-04-08, 00:07:04,VALID,1003.44,VALID,0,VALID,92.3781,VALID,0,VALID,24.4275,VALID,329,VALID,0.569531,
2008-04-08, 00:08:04,VALID,1003.44,VALID,0,VALID,91.8517,VALID,0,VALID,24.4646,VALID,318,VALID,0.530859,
2008-04-08, 00:09:04,VALID,1003.45,VALID,0,VALID,91.455,VALID,0,VALID,24.4841,VALID,344,VALID,0.215625,
2008-04-08, 00:10:04,VALID,1003.46,VALID,0,VALID,91.4016,VALID,0,VALID,24.4859,VALID,356,VALID,0.753516,
2008-04-08, 00:11:04,VALID,1003.44,VALID,0,VALID,91.4855,VALID,0,VALID,24.4257,VALID,358,VALID,0.545703,
2008-04-08, 00:12:04,VALID,1003.42,VALID,0,VALID,91.7602,VALID,0,VALID,24.3867,VALID,356,VALID,0.681641,
2008-04-08, 00:13:04,VALID,1003.44,VALID,0,VALID,91.9051,VALID,0,VALID,24.3867,VALID,347,VALID,0.103125,
2008-04-08, 00:14:04,VALID,1003.44,VALID,0,VALID,91.9738,VALID,0,VALID,24.4275,VALID,347,VALID,0.00195313,
2008-04-08, 00:15:04,VALID,1003.43,VALID,0,VALID,91.6839,VALID,0,VALID,24.447,VALID,1,VALID,0.876172,
2008-04-08, 00:16:04,VALID,1003.42,VALID,0,VALID,91.7983,VALID,0,VALID,24.3886,VALID,1,VALID,0.627344,
2008-04-08, 00:17:04,VALID,1003.43,VALID,0,VALID,91.9433,VALID,0,VALID,24.3673,VALID,360,VALID,0.544922,
2008-04-08, 00:18:04,VALID,1003.43,VALID,0,VALID,92.1264,VALID,0,VALID,24.3088,VALID,360,VALID,0.637891,
2008-04-08, 00:19:04,VALID,1003.41,VALID,0,VALID,92.1645,VALID,0,VALID,24.3302,VALID,360,VALID,0.686719,
2008-04-08, 00:20:04,VALID,1003.39,VALID,0,VALID,92.2789,VALID,0,VALID,24.2699,VALID,360,VALID,0.572656,
2008-04-08, 00:21:04,VALID,1003.4,VALID,0,VALID,92.4086,VALID,0,VALID,24.2523,VALID,360,VALID,0.777734,
2008-04-08, 00:22:04,VALID,1003.4,VALID,0,VALID,92.4544,VALID,0,VALID,24.1726,VALID,1,VALID,0.655859,
2008-04-08, 00:23:04,VALID,1003.38,VALID,0,VALID,92.5841,VALID,0,VALID,24.1355,VALID,1,VALID,0.647266,
2008-04-08, 00:24:04,VALID,1003.37,VALID,0,VALID,92.7977,VALID,0,VALID,24.0752,VALID,1,VALID,0.707422,
2008-04-08, 00:25:04,VALID,1003.36,VALID,0,VALID,93.1257,VALID,0,VALID,24.0557,VALID,360,VALID,0.836328,
2008-04-08, 00:26:04,VALID,1003.36,VALID,0,VALID,93.2859,VALID,0,VALID,24.0363,VALID,358,VALID,0.732422,
2008-04-08, 00:27:04,VALID,1003.35,VALID,0,VALID,93.2859,VALID,0,VALID,24.0381,VALID,358,VALID,0.748828,
2008-04-08, 00:28:04,VALID,1003.37,VALID,0,VALID,93.2936,VALID,0,VALID,23.9973,VALID,358,VALID,0.773828,
2008-04-08, 00:29:04,VALID,1003.37,VALID,0,VALID,93.4309,VALID,0,VALID,23.9779,VALID,359,VALID,0.646094,
2008-04-08, 00:30:04,VALID,1003.36,VALID,0,VALID,93.4233,VALID,0,VALID,23.9779,VALID,1,VALID,0.684375,
2008-04-08, 00:31:04,VALID,1003.36,VALID,0,VALID,93.4156,VALID,0,VALID,23.9602,VALID,3,VALID,0.812109,
2008-04-08, 00:32:04,VALID,1003.35,VALID,0,VALID,93.4996,VALID,0,VALID,23.9408,VALID,3,VALID,0.750391,
2008-04-08, 00:33:04,VALID,1003.35,VALID,0,VALID,93.6826,VALID,0,VALID,23.9,VALID,3,VALID,0.616797,
2008-04-08, 00:34:04,VALID,1003.32,VALID,0,VALID,93.881,VALID,0,VALID,23.9,VALID,3,VALID,0.694141,
2008-04-08, 00:35:04,VALID,1003.29,VALID,0,VALID,94.0259,VALID,0,VALID,23.9389,VALID,359,VALID,0.801562,
2008-04-08, 00:36:04,VALID,1003.28,VALID,0,VALID,93.9497,VALID,0,VALID,23.9779,VALID,356,VALID,0.821875,
2008-04-08, 00:37:04,VALID,1003.25,VALID,0,VALID,93.7361,VALID,0,VALID,24.0363,VALID,6,VALID,1.00312,
2008-04-08, 00:38:04,VALID,1003.25,VALID,0,VALID,93.553,VALID,0,VALID,24.1142,VALID,359,VALID,0.753516,
2008-04-08, 00:39:04,VALID,1003.29,VALID,0,VALID,93.2402,VALID,0,VALID,24.1726,VALID,351,VALID,0.820313,
2008-04-08, 00:40:04,VALID,1003.28,VALID,0,VALID,92.8892,VALID,0,VALID,24.231,VALID,353,VALID,0.523047,
2008-04-08, 00:41:04,VALID,1003.27,VALID,0,VALID,92.6756,VALID,0,VALID,24.2699,VALID,1,VALID,0.602344,
2008-04-08, 00:42:04,VALID,1003.28,VALID,0,VALID,92.5154,VALID,0,VALID,24.3302,VALID,336,VALID,0.483203,
2008-04-08, 00:43:04,VALID,1003.27,VALID,0,VALID,92.3247,VALID,0,VALID,24.3691,VALID,350,VALID,0.490625,
2008-04-08, 00:44:04,VALID,1003.29,VALID,0,VALID,92.1721,VALID,0,VALID,24.3673,VALID,350,VALID,0.362109,
2008-04-08, 00:45:04,VALID,1003.28,VALID,0,VALID,92.0196,VALID,0,VALID,24.4062,VALID,323,VALID,0.194922,
2008-04-08, 00:46:04,VALID,1003.31,VALID,0,VALID,91.8899,VALID,0,VALID,24.4257,VALID,323,VALID,0.021875,
2008-04-08, 00:47:04,VALID,1003.29,VALID,0,VALID,91.9204,VALID,0,VALID,24.4451,VALID,323,VALID,0.0453125,
2008-04-08, 00:48:04,VALID,1003.27,VALID,0,VALID,91.8822,VALID,0,VALID,24.4238,VALID,349,VALID,0.694141,
2008-04-08, 00:49:04,VALID,1003.27,VALID,0,VALID,91.6915,VALID,0,VALID,24.5035,VALID,328,VALID,0.435547,
2008-04-08, 00:50:04,VALID,1003.28,VALID,0,VALID,91.5161,VALID,0,VALID,24.523,VALID,328,VALID,0.0140625,
2008-04-08, 00:51:04,VALID,1003.27,VALID,0,VALID,91.4092,VALID,0,VALID,24.5425,VALID,328,VALID,0,
2008-04-08, 00:52:04,VALID,1003.26,VALID,0,VALID,91.3406,VALID,0,VALID,24.5425,VALID,328,VALID,0,
2008-04-08, 00:53:04,VALID,1003.27,VALID,0,VALID,91.3177,VALID,0,VALID,24.5425,VALID,328,VALID,0.0949219,
2008-04-08, 00:54:04,VALID,1003.3,VALID,0,VALID,91.394,VALID,0,VALID,24.523,VALID,328,VALID,0,
2008-04-08, 00:55:04,VALID,1003.3,VALID,0,VALID,91.4398,VALID,0,VALID,24.5443,VALID,328,VALID,0.0785156,
2008-04-08, 00:56:04,VALID,1003.3,VALID,0,VALID,91.5618,VALID,0,VALID,24.5425,VALID,328,VALID,0.228125,
2008-04-08, 00:57:04,VALID,1003.32,VALID,0,VALID,91.6152,VALID,0,VALID,24.5425,VALID,328,VALID,0,
2008-04-08, 00:58:04,VALID,1003.3,VALID,0,VALID,91.5923,VALID,0,VALID,24.5425,VALID,273,VALID,0,
2008-04-08, 00:59:04,VALID,1003.31,VALID,0,VALID,91.5466,VALID,0,VALID,24.5833,VALID,276,VALID,0.0890625,
2008-04-08, 01:00:04,VALID,1003.37,VALID,0,VALID,91.5237,VALID,0,VALID,24.5425,VALID,276,VALID,0.00117188,
2008-04-08, 01:01:04,VALID,1003.41,VALID,0,VALID,91.4626,VALID,0,VALID,24.5212,VALID,276,VALID,0.239844,
2008-04-08, 01:02:04,VALID,1003.43,VALID,0,VALID,91.2643,VALID,0,VALID,24.5425,VALID,276,VALID,0.0191406,
2008-04-08, 01:03:04,VALID,1003.46,VALID,0,VALID,91.2109,VALID,0,VALID,24.523,VALID,276,VALID,0.0015625,
2008-04-08, 01:04:04,VALID,1003.48,VALID,0,VALID,91.2872,VALID,0,VALID,24.562,VALID,276,VALID,0.123828,
2008-04-08, 01:05:04,VALID,1003.47,VALID,0,VALID,91.4855,VALID,0,VALID,24.5814,VALID,257,VALID,0.492578,
2008-04-08, 01:06:04,VALID,1003.47,VALID,0,VALID,91.2643,VALID,0,VALID,24.6204,VALID,289,VALID,0.510156,
2008-04-08, 01:07:04,VALID,1003.48,VALID,0,VALID,90.982,VALID,0,VALID,24.6593,VALID,300,VALID,0,
2008-04-08, 01:08:04,VALID,1003.52,VALID,0,VALID,90.8905,VALID,0,VALID,24.7177,VALID,300,VALID,0,
2008-04-08, 01:09:04,VALID,1003.5,VALID,0,VALID,90.7455,VALID,0,VALID,24.7177,VALID,300,VALID,0.108203,
2008-04-08, 01:10:04,VALID,1003.51,VALID,0,VALID,90.5243,VALID,0.100563,VALID,24.7177,VALID,297,VALID,0.268359,
2008-04-08, 01:11:04,VALID,1003.54,VALID,0,VALID,90.448,VALID,0.100563,VALID,24.6769,VALID,297,VALID,0.0515625,
2008-04-08, 01:12:04,VALID,1003.54,VALID,0,VALID,90.5396,VALID,0,VALID,24.7196,VALID,297,VALID,0.00117188,
2008-04-08, 01:13:04,VALID,1003.54,VALID,0,VALID,90.509,VALID,0,VALID,24.6983,VALID,255,VALID,0.408594,
2008-04-08, 01:14:04,VALID,1003.55,VALID,0,VALID,90.3793,VALID,0.100563,VALID,24.6964,VALID,230,VALID,0.00117188,
2008-04-08, 01:15:04,VALID,1003.58,VALID,0,VALID,90.2649,VALID,0,VALID,24.7177,VALID,230,VALID,0.328516,
2008-04-08, 01:16:04,VALID,1003.58,VALID,0,VALID,90.1963,VALID,0.100563,VALID,24.7372,VALID,230,VALID,0.224609,
2008-04-08, 01:17:04,VALID,1003.59,VALID,0,VALID,90.1429,VALID,0,VALID,24.7177,VALID,230,VALID,0.176953,
2008-04-08, 01:18:04,VALID,1003.61,VALID,0,VALID,90.2573,VALID,0,VALID,24.6964,VALID,230,VALID,0.00390625,
2008-04-08, 01:19:04,VALID,1003.61,VALID,0,VALID,90.4022,VALID,0,VALID,24.7177,VALID,230,VALID,0,
2008-04-08, 01:20:04,VALID,1003.58,VALID,0,VALID,90.4709,VALID,0.100563,VALID,24.6983,VALID,230,VALID,0,
2008-04-08, 01:21:04,VALID,1003.58,VALID,0,VALID,90.4709,VALID,0,VALID,24.6593,VALID,230,VALID,0,
2008-04-08, 01:22:04,VALID,1003.54,VALID,0,VALID,90.5777,VALID,0,VALID,24.6204,VALID,230,VALID,0.142969,
2008-04-08, 01:23:04,VALID,1003.58,VALID,0,VALID,90.6158,VALID,0,VALID,24.562,VALID,230,VALID,0,
2008-04-08, 01:24:04,VALID,1003.59,VALID,0,VALID,90.7837,VALID,0,VALID,24.5035,VALID,230,VALID,0,
2008-04-08, 01:25:04,VALID,1003.62,VALID,0,VALID,91.0888,VALID,0,VALID,24.4238,VALID,230,VALID,0,
2008-04-08, 01:26:04,VALID,1003.64,VALID,0,VALID,91.4779,VALID,0,VALID,24.3867,VALID,230,VALID,0,
2008-04-08, 01:27:04,VALID,1003.69,VALID,0,VALID,91.9128,VALID,0,VALID,24.3478,VALID,230,VALID,0.065625,
2008-04-08, 01:28:04,VALID,1003.68,VALID,0,VALID,92.2789,VALID,0,VALID,24.3496,VALID,223,VALID,0.632031,
2008-04-08, 01:29:04,VALID,1003.67,VALID,0,VALID,92.5612,VALID,0,VALID,24.3088,VALID,223,VALID,0.529297,
2008-04-08, 01:30:04,VALID,1003.7,VALID,0,VALID,92.668,VALID,0,VALID,24.2912,VALID,223,VALID,0.38125,
2008-04-08, 01:31:04,VALID,1003.68,VALID,0,VALID,92.729,VALID,0,VALID,24.2504,VALID,223,VALID,0.171094,
2008-04-08, 01:32:04,VALID,1003.67,VALID,0,VALID,92.8435,VALID,0,VALID,24.2523,VALID,223,VALID,0.0078125,
2008-04-08, 01:33:04,VALID,1003.68,VALID,0,VALID,92.9808,VALID,0,VALID,24.231,VALID,223,VALID,0.264062,
2008-04-08, 01:34:04,VALID,1003.67,VALID,0,VALID,93.0723,VALID,0,VALID,24.231,VALID,223,VALID,0.590625,
2008-04-08, 01:35:04,VALID,1003.64,VALID,0,VALID,92.8435,VALID,0,VALID,24.1726,VALID,223,VALID,0.564062,
2008-04-08, 01:36:04,VALID,1003.64,VALID,0,VALID,92.9121,VALID,0,VALID,24.1336,VALID,224,VALID,0.530078,
2008-04-08, 01:37:04,VALID,1003.65,VALID,0,VALID,93.0113,VALID,0,VALID,24.0947,VALID,224,VALID,0.308203,
2008-04-08, 01:38:04,VALID,1003.6,VALID,0,VALID,93.1486,VALID,0,VALID,24.0965,VALID,225,VALID,0.434375,
2008-04-08, 01:39:04,VALID,1003.63,VALID,0,VALID,93.2783,VALID,0,VALID,24.0363,VALID,225,VALID,0.349609,
2008-04-08, 01:40:04,VALID,1003.62,VALID,0,VALID,93.4004,VALID,0,VALID,24.0363,VALID,225,VALID,0.221875,
2008-04-08, 01:41:04,VALID,1003.61,VALID,0,VALID,93.5072,VALID,0,VALID,24.0168,VALID,225,VALID,0.132422,
2008-04-08, 01:42:04,VALID,1003.61,VALID,0,VALID,93.7132,VALID,0,VALID,24.0168,VALID,225,VALID,0.385156,
2008-04-08, 01:43:04,VALID,1003.62,VALID,0,VALID,93.8123,VALID,0,VALID,24.0363,VALID,230,VALID,0.308594,
2008-04-08, 01:44:04,VALID,1003.61,VALID,0,VALID,93.8581,VALID,0,VALID,24.0168,VALID,230,VALID,0.209766,
2008-04-08, 01:45:04,VALID,1003.58,VALID,0,VALID,93.8581,VALID,0,VALID,24.0168,VALID,230,VALID,0.05625,
2008-04-08, 01:46:04,VALID,1003.55,VALID,0,VALID,93.9191,VALID,0,VALID,24.015,VALID,230,VALID,0.0871094,
2008-04-08, 01:47:04,VALID,1003.55,VALID,0,VALID,93.9802,VALID,0,VALID,24.0168,VALID,230,VALID,0.137891,
2008-04-08, 01:48:04,VALID,1003.56,VALID,0,VALID,94.0031,VALID,0,VALID,24.0168,VALID,230,VALID,0.0738281,
2008-04-08, 01:49:04,VALID,1003.55,VALID,0,VALID,94.1022,VALID,0,VALID,24.0168,VALID,230,VALID,0,
2008-04-08, 01:50:04,VALID,1003.55,VALID,0,VALID,94.1328,VALID,0,VALID,24.0363,VALID,230,VALID,0,
2008-04-08, 01:51:04,VALID,1003.58,VALID,0,VALID,94.1022,VALID,0,VALID,24.0168,VALID,230,VALID,0.232422,
2008-04-08, 01:52:04,VALID,1003.59,VALID,0,VALID,94.1862,VALID,0,VALID,23.9955,VALID,230,VALID,0.325781,
2008-04-08, 01:53:04,VALID,1003.59,VALID,0,VALID,94.2624,VALID,0,VALID,24.0363,VALID,230,VALID,0.335547,
2008-04-08, 01:54:04,VALID,1003.59,VALID,0,VALID,94.2777,VALID,0,VALID,24.0168,VALID,230,VALID,0.366016,
2008-04-08, 01:55:04,VALID,1003.58,VALID,0,VALID,94.3845,VALID,0,VALID,24.0168,VALID,230,VALID,0.299609,
2008-04-08, 01:56:04,VALID,1003.52,VALID,0,VALID,94.3998,VALID,0,VALID,24.0576,VALID,231,VALID,0.358984,
2008-04-08, 01:57:04,VALID,1003.5,VALID,0,VALID,94.4074,VALID,0,VALID,23.9973,VALID,15,VALID,0.583594,
2008-04-08, 01:58:04,VALID,1003.46,VALID,0,VALID,94.3769,VALID,0,VALID,23.9973,VALID,18,VALID,0.582422,
2008-04-08, 01:59:04,VALID,1003.44,VALID,0,VALID,94.4913,VALID,0,VALID,23.9992,VALID,20,VALID,0.532031,
2008-04-08, 02:00:04,VALID,1003.4,VALID,0,VALID,94.5981,VALID,0,VALID,23.9973,VALID,21,VALID,0.533594,
2008-04-08, 02:01:04,VALID,1003.39,VALID,0,VALID,94.6363,VALID,0,VALID,23.9973,VALID,23,VALID,0.50625,
2008-04-08, 02:02:04,VALID,1003.35,VALID,0,VALID,94.6515,VALID,0,VALID,23.9973,VALID,23,VALID,0.688672,
2008-04-08, 02:03:04,VALID,1003.34,VALID,0,VALID,94.7049,VALID,0,VALID,23.9973,VALID,23,VALID,0.500391,
2008-04-08, 02:04:04,VALID,1003.31,VALID,0,VALID,94.8346,VALID,0,VALID,24.0168,VALID,26,VALID,0.673828,
2008-04-08, 02:05:04,VALID,1003.28,VALID,0,VALID,94.8499,VALID,0,VALID,24.0557,VALID,27,VALID,0.708594,
2008-04-08, 02:06:04,VALID,1003.23,VALID,0,VALID,94.7507,VALID,0,VALID,24.0752,VALID,27,VALID,0.697266,
2008-04-08, 02:07:04,VALID,1003.23,VALID,0,VALID,94.7049,VALID,0,VALID,24.1142,VALID,28,VALID,0.535156,
2008-04-08, 02:08:04,VALID,1003.21,VALID,0,VALID,94.6363,VALID,0,VALID,24.1549,VALID,34,VALID,0.581641,
2008-04-08, 02:09:04,VALID,1003.19,VALID,0,VALID,94.5676,VALID,0,VALID,24.1939,VALID,34,VALID,0.502734,
2008-04-08, 02:10:04,VALID,1003.18,VALID,0,VALID,94.5295,VALID,0,VALID,24.2133,VALID,33,VALID,0.632813,
2008-04-08, 02:11:04,VALID,1003.16,VALID,0,VALID,94.4837,VALID,0,VALID,24.192,VALID,33,VALID,0.515234,
2008-04-08, 02:12:04,VALID,1003.15,VALID,0,VALID,94.4532,VALID,0,VALID,24.231,VALID,33,VALID,0.458594,
2008-04-08, 02:13:04,VALID,1003.14,VALID,0,VALID,94.3692,VALID,0,VALID,24.2115,VALID,33,VALID,0.529297,
2008-04-08, 02:14:04,VALID,1003.13,VALID,0,VALID,94.3387,VALID,0,VALID,24.2115,VALID,33,VALID,0.41875,
2008-04-08, 02:15:04,VALID,1003.11,VALID,0,VALID,94.3006,VALID,0,VALID,24.2328,VALID,33,VALID,0.276953,
2008-04-08, 02:16:04,VALID,1003.09,VALID,0,VALID,94.2624,VALID,0,VALID,24.2115,VALID,33,VALID,0.316797,
2008-04-08, 02:17:04,VALID,1003.06,VALID,0,VALID,94.3006,VALID,0,VALID,24.192,VALID,33,VALID,0.196094,
2008-04-08, 02:18:04,VALID,1003.05,VALID,0,VALID,94.3235,VALID,0,VALID,24.192,VALID,33,VALID,0,
2008-04-08, 02:19:04,VALID,1003.06,VALID,0,VALID,94.354,VALID,0,VALID,24.192,VALID,33,VALID,0.00195313,
2008-04-08, 02:20:04,VALID,1003.07,VALID,0,VALID,94.4684,VALID,0,VALID,24.2133,VALID,33,VALID,0.257813,
2008-04-08, 02:21:04,VALID,1003.04,VALID,0,VALID,94.4303,VALID,0,VALID,24.2133,VALID,33,VALID,0.475,
2008-04-08, 02:22:04,VALID,1003.05,VALID,0,VALID,94.415,VALID,0,VALID,24.2133,VALID,33,VALID,0.44375,
2008-04-08, 02:23:04,VALID,1003.02,VALID,0,VALID,94.4074,VALID,0,VALID,24.2133,VALID,33,VALID,0.528125,
2008-04-08, 02:24:04,VALID,1003,VALID,0,VALID,94.3998,VALID,0,VALID,24.2133,VALID,19,VALID,0.591406,
2008-04-08, 02:25:04,VALID,1002.96,VALID,0,VALID,94.4303,VALID,0,VALID,24.1726,VALID,19,VALID,0.475,
2008-04-08, 02:26:04,VALID,1002.9,VALID,0,VALID,94.5371,VALID,0,VALID,24.192,VALID,19,VALID,0.431641,
2008-04-08, 02:27:04,VALID,1002.91,VALID,0,VALID,94.6134,VALID,0,VALID,24.1939,VALID,19,VALID,0.530859,
2008-04-08, 02:28:04,VALID,1002.86,VALID,0,VALID,94.7202,VALID,0,VALID,24.2133,VALID,18,VALID,0.464453,
2008-04-08, 02:29:04,VALID,1002.88,VALID,0,VALID,94.7965,VALID,0,VALID,24.2328,VALID,351,VALID,0.470703,
2008-04-08, 02:30:04,VALID,1002.85,VALID,0,VALID,94.7202,VALID,0,VALID,24.2504,VALID,351,VALID,0.572266,
2008-04-08, 02:31:04,VALID,1002.84,VALID,0,VALID,94.6515,VALID,0,VALID,24.3107,VALID,350,VALID,0.692187,
2008-04-08, 02:32:04,VALID,1002.87,VALID,0,VALID,94.2624,VALID,0,VALID,24.4062,VALID,328,VALID,0.801562,
2008-04-08, 02:33:04,VALID,1002.84,VALID,0,VALID,93.8505,VALID,0,VALID,24.5443,VALID,352,VALID,0.244531,
2008-04-08, 02:34:04,VALID,1002.84,VALID,0,VALID,93.3775,VALID,0,VALID,24.6417,VALID,348,VALID,0.715234,
2008-04-08, 02:35:04,VALID,1002.82,VALID,0,VALID,93.0571,VALID,0,VALID,24.6983,VALID,344,VALID,0.35625,
2008-04-08, 02:36:04,VALID,1002.84,VALID,0,VALID,92.6833,VALID,0,VALID,24.7567,VALID,343,VALID,0.639063,
2008-04-08, 02:37:04,VALID,1002.81,VALID,0,VALID,92.4086,VALID,0,VALID,24.8559,VALID,336,VALID,0.134375,
2008-04-08, 02:38:04,VALID,1002.84,VALID,0,VALID,92.1264,VALID,0,VALID,24.8735,VALID,336,VALID,0.425391,
2008-04-08, 02:39:04,VALID,1002.79,VALID,0,VALID,91.9814,VALID,0,VALID,24.9125,VALID,337,VALID,0.535937,
2008-04-08, 02:40:04,VALID,1002.83,VALID,0,VALID,91.8365,VALID,0,VALID,24.9533,VALID,337,VALID,0.434375,
2008-04-08, 02:41:04,VALID,1002.81,VALID,0,VALID,91.6839,VALID,0,VALID,24.9514,VALID,351,VALID,0.707031,
2008-04-08, 02:42:04,VALID,1002.82,VALID,0,VALID,91.4932,VALID,0,VALID,24.9728,VALID,353,VALID,0.427734,
2008-04-08, 02:43:04,VALID,1002.82,VALID,0,VALID,91.4855,VALID,0,VALID,24.9922,VALID,353,VALID,0.223828,
2008-04-08, 02:44:04,VALID,1002.84,VALID,0,VALID,91.455,VALID,0,VALID,24.9709,VALID,353,VALID,0.252734,
2008-04-08, 02:45:04,VALID,1002.87,VALID,0,VALID,91.5542,VALID,0,VALID,24.9533,VALID,353,VALID,0.170312,
2008-04-08, 02:46:04,VALID,1002.87,VALID,0,VALID,91.6229,VALID,0.100563,VALID,24.9319,VALID,353,VALID,0.114063,
2008-04-08, 02:47:04,VALID,1002.88,VALID,0,VALID,91.7449,VALID,0,VALID,24.893,VALID,353,VALID,0.174219,
2008-04-08, 02:48:04,VALID,1002.89,VALID,0,VALID,91.8441,VALID,0,VALID,24.8735,VALID,353,VALID,0,
2008-04-08, 02:49:04,VALID,1002.92,VALID,0,VALID,91.8975,VALID,0,VALID,24.8735,VALID,353,VALID,0.233984,
2008-04-08, 02:50:04,VALID,1002.91,VALID,0,VALID,91.928,VALID,0,VALID,24.854,VALID,36,VALID,0.34375,
2008-04-08, 02:51:04,VALID,1002.93,VALID,0,VALID,91.9814,VALID,0,VALID,24.8735,VALID,36,VALID,0.271875,
2008-04-08, 02:52:04,VALID,1002.93,VALID,0,VALID,91.8517,VALID,0,VALID,24.8949,VALID,36,VALID,0.384375,
2008-04-08, 02:53:04,VALID,1002.92,VALID,0,VALID,91.8136,VALID,0,VALID,24.893,VALID,38,VALID,0.376172,
2008-04-08, 02:54:04,VALID,1002.92,VALID,0,VALID,91.6763,VALID,0,VALID,24.9338,VALID,39,VALID,0.543359,
2008-04-08, 02:55:04,VALID,1002.93,VALID,0,VALID,91.5923,VALID,0,VALID,24.9533,VALID,39,VALID,0.442578,
2008-04-08, 02:56:04,VALID,1002.94,VALID,0,VALID,91.5237,VALID,0,VALID,24.9514,VALID,32,VALID,0.55625,
2008-04-08, 02:57:04,VALID,1002.96,VALID,0,VALID,91.4855,VALID,0,VALID,24.9728,VALID,97,VALID,0.543359,
2008-04-08, 02:58:04,VALID,1002.97,VALID,0,VALID,91.4474,VALID,0,VALID,24.9709,VALID,85,VALID,0.223828,
2008-04-08, 02:59:04,VALID,1002.99,VALID,0,VALID,91.4016,VALID,0,VALID,24.9709,VALID,85,VALID,0.112109,
2008-04-08, 03:00:04,VALID,1003.01,VALID,0,VALID,91.4321,VALID,0,VALID,24.9904,VALID,86,VALID,0.28125,
2008-04-08, 03:01:04,VALID,1003.1,VALID,0,VALID,91.3635,VALID,0,VALID,24.9904,VALID,86,VALID,0.0230469,
2008-04-08, 03:02:04,VALID,1003.15,VALID,0,VALID,91.3482,VALID,0,VALID,24.9922,VALID,86,VALID,0,
2008-04-08, 03:03:04,VALID,1003.17,VALID,0,VALID,91.4016,VALID,0,VALID,24.9514,VALID,86,VALID,0.338672,
2008-04-08, 03:04:04,VALID,1003.17,VALID,0,VALID,91.4703,VALID,0,VALID,24.9709,VALID,86,VALID,0.144922,
2008-04-08, 03:05:04,VALID,1003.21,VALID,0,VALID,91.5161,VALID,0,VALID,24.9709,VALID,86,VALID,0,
2008-04-08, 03:06:04,VALID,1003.22,VALID,0,VALID,91.5008,VALID,0,VALID,24.9728,VALID,86,VALID,0,
2008-04-08, 03:07:04,VALID,1003.27,VALID,0,VALID,91.4626,VALID,0,VALID,24.9338,VALID,86,VALID,0,
2008-04-08, 03:08:04,VALID,1003.27,VALID,0,VALID,91.5313,VALID,0,VALID,24.9125,VALID,86,VALID,0,
2008-04-08, 03:09:04,VALID,1003.24,VALID,0,VALID,91.5618,VALID,0,VALID,24.9338,VALID,86,VALID,0,
2008-04-08, 03:10:04,VALID,1003.27,VALID,0,VALID,91.7373,VALID,0,VALID,24.9143,VALID,86,VALID,0.148438,
2008-04-08, 03:11:04,VALID,1003.28,VALID,0,VALID,92.0196,VALID,0,VALID,24.893,VALID,40,VALID,0.587109,
2008-04-08, 03:12:04,VALID,1003.23,VALID,0,VALID,92.134,VALID,0,VALID,24.854,VALID,40,VALID,0.507813,
2008-04-08, 03:13:04,VALID,1003.25,VALID,0,VALID,92.2942,VALID,0,VALID,24.854,VALID,40,VALID,0.406641,
2008-04-08, 03:14:04,VALID,1003.26,VALID,0,VALID,92.4163,VALID,0,VALID,24.8346,VALID,18,VALID,0.541016,
2008-04-08, 03:15:05,VALID,1003.22,VALID,0,VALID,92.4468,VALID,0,VALID,24.7956,VALID,18,VALID,0.486719,
2008-04-08, 03:16:05,VALID,1003.23,VALID,0,VALID,92.546,VALID,0,VALID,24.7353,VALID,9,VALID,0.603906,
2008-04-08, 03:17:05,VALID,1003.22,VALID,0,VALID,92.7138,VALID,0,VALID,24.7372,VALID,9,VALID,0.447266,
2008-04-08, 03:18:05,VALID,1003.17,VALID,0,VALID,92.7748,VALID,0,VALID,24.6983,VALID,9,VALID,0.317969,
2008-04-08, 03:19:05,VALID,1003.14,VALID,0,VALID,92.9274,VALID,0,VALID,24.6788,VALID,9,VALID,0.505078,
2008-04-08, 03:20:05,VALID,1003.14,VALID,0,VALID,93.0342,VALID,0,VALID,24.6398,VALID,9,VALID,0.303516,
2008-04-08, 03:21:05,VALID,1003.14,VALID,0,VALID,93.141,VALID,0,VALID,24.5796,VALID,9,VALID,0.36875,
2008-04-08, 03:22:05,VALID,1003.09,VALID,0,VALID,93.2859,VALID,0,VALID,24.5814,VALID,9,VALID,0.373047,
2008-04-08, 03:23:05,VALID,1003.07,VALID,0,VALID,93.4233,VALID,0,VALID,24.562,VALID,9,VALID,0.479297,
2008-04-08, 03:24:05,VALID,1003.05,VALID,0,VALID,93.5148,VALID,0,VALID,24.5425,VALID,9,VALID,0.521094,
2008-04-08, 03:25:05,VALID,1003.07,VALID,0,VALID,93.5758,VALID,0,VALID,24.5035,VALID,9,VALID,0.417578,
2008-04-08, 03:26:05,VALID,1003.07,VALID,0,VALID,93.6521,VALID,0,VALID,24.4841,VALID,9,VALID,0.396875,
2008-04-08, 03:27:05,VALID,1003.08,VALID,0,VALID,93.675,VALID,0,VALID,24.4451,VALID,9,VALID,0.444141,
2008-04-08, 03:28:05,VALID,1003.04,VALID,0,VALID,93.7742,VALID,0,VALID,24.4257,VALID,9,VALID,0.446094,
2008-04-08, 03:29:05,VALID,1003.06,VALID,0,VALID,93.9268,VALID,0,VALID,24.4062,VALID,9,VALID,0.4875,
2008-04-08, 03:30:05,VALID,1003.03,VALID,0,VALID,94.0488,VALID,0,VALID,24.3867,VALID,9,VALID,0.472266,
2008-04-08, 03:31:05,VALID,1003,VALID,0,VALID,94.1556,VALID,0,VALID,24.3654,VALID,9,VALID,0.569141,
2008-04-08, 03:32:05,VALID,1003.01,VALID,0,VALID,94.2853,VALID,0,VALID,24.3673,VALID,8,VALID,0.711719,
2008-04-08, 03:33:05,VALID,1002.98,VALID,0,VALID,94.354,VALID,0,VALID,24.3265,VALID,6,VALID,0.636719,
2008-04-08, 03:34:05,VALID,1002.99,VALID,0,VALID,94.4379,VALID,0,VALID,24.3478,VALID,6,VALID,0.619141,
2008-04-08, 03:35:05,VALID,1002.97,VALID,0,VALID,94.4837,VALID,0,VALID,24.3478,VALID,6,VALID,0.476172,
2008-04-08, 03:36:05,VALID,1002.98,VALID,0,VALID,94.4989,VALID,0,VALID,24.3283,VALID,5,VALID,0.416797,
2008-04-08, 03:37:05,VALID,1003.01,VALID,0,VALID,94.5447,VALID,0,VALID,24.3283,VALID,5,VALID,0,
2008-04-08, 03:38:05,VALID,1003.03,VALID,0,VALID,94.5829,VALID,0,VALID,24.3283,VALID,5,VALID,0.387109,
2008-04-08, 03:39:05,VALID,1003.01,VALID,0,VALID,94.6134,VALID,0,VALID,24.3265,VALID,1,VALID,0.265625,
2008-04-08, 03:40:05,VALID,1002.99,VALID,0,VALID,94.6439,VALID,0,VALID,24.3459,VALID,1,VALID,0.438281,
2008-04-08, 03:41:05,VALID,1002.98,VALID,0,VALID,94.6057,VALID,0,VALID,24.3673,VALID,1,VALID,0.289453,
2008-04-08, 03:42:05,VALID,1002.95,VALID,0,VALID,94.6439,VALID,0,VALID,24.3867,VALID,1,VALID,0.379687,
2008-04-08, 03:43:05,VALID,1002.91,VALID,0,VALID,94.5752,VALID,0,VALID,24.4062,VALID,1,VALID,0.463281,
2008-04-08, 03:44:05,VALID,1002.9,VALID,0,VALID,94.5218,VALID,0,VALID,24.4451,VALID,360,VALID,0.4125,
2008-04-08, 03:45:05,VALID,1002.9,VALID,0,VALID,94.3921,VALID,0,VALID,24.4646,VALID,356,VALID,0.499609,
2008-04-08, 03:46:05,VALID,1002.88,VALID,0,VALID,94.3158,VALID,0,VALID,24.4841,VALID,352,VALID,0.466797,